TimeCDT,TemperatureF,Dew PointF,Humidity,Sea Level PressureIn,VisibilityMPH,Wind Direction,Wind SpeedMPH,Gust SpeedMPH,PrecipitationIn,Events,Conditions,WindDirDegrees,DateUTC
12:53 AM,27.0,24.1,89,30.20,10.0,Calm,Calm,-,N/A,,Clear,0,2012-11-03 05:53:00
1:37 AM,28.4,24.8,86,30.15,1.5,Calm,Calm,-,N/A,,Clear,0,2012-11-03 06:37:00
1:44 AM,28.4,24.8,86,30.15,1.0,Calm,Calm,-,N/A,,Clear,0,2012-11-03 06:44:00
1:47 AM,26.6,24.8,93,30.15,2.0,Calm,Calm,-,N/A,,Clear,0,2012-11-03 06:47:00
1:50 AM,26.6,24.8,93,30.15,7.0,Calm,Calm,-,N/A,,Partly Cloudy,0,2012-11-03 06:50:00
1:53 AM,26.1,24.1,92,30.20,10.0,Calm,Calm,-,N/A,,Partly Cloudy,0,2012-11-03 06:53:00
2:00 AM,26.6,24.8,93,30.16,1.2,NW,4.6,-,N/A,,Scattered Clouds,310,2012-11-03 07:00:00
2:03 AM,26.6,24.8,93,30.16,0.8,NW,5.8,-,N/A,,Mist,320,2012-11-03 07:03:00
2:10 AM,24.8,23.0,93,30.16,1.2,NNW,4.6,-,N/A,,Scattered Clouds,330,2012-11-03 07:10:00
2:14 AM,24.8,21.2,86,30.16,2.0,NNW,4.6,-,N/A,,Scattered Clouds,330,2012-11-03 07:14:00
2:29 AM,24.8,21.2,86,30.16,5.0,NW,3.5,-,N/A,,Partly Cloudy,320,2012-11-03 07:29:00
2:33 AM,26.6,23.0,86,30.16,1.5,WNW,3.5,-,N/A,,Clear,300,2012-11-03 07:33:00
2:38 AM,24.8,24.8,100,30.16,1.0,WNW,4.6,-,N/A,,Mist,300,2012-11-03 07:38:00
2:42 AM,24.8,24.8,100,30.16,1.5,WNW,5.8,-,N/A,,Partly Cloudy,300,2012-11-03 07:42:00
2:45 AM,24.8,24.8,100,30.16,3.0,NW,5.8,-,N/A,,Partly Cloudy,310,2012-11-03 07:45:00
2:53 AM,24.8,24.8,100,30.16,7.0,NW,6.9,-,N/A,,Partly Cloudy,320,2012-11-03 07:53:00
3:10 AM,26.6,26.6,100,30.16,2.0,NW,4.6,-,N/A,,Clear,310,2012-11-03 08:10:00
3:21 AM,24.8,24.8,100,30.16,9.0,WNW,3.5,-,N/A,,Clear,290,2012-11-03 08:21:00
3:53 AM,27.0,25.0,92,30.21,9.0,NW,6.9,-,N/A,,Clear,320,2012-11-03 08:53:00
4:53 AM,25.0,24.1,96,30.21,10.0,WNW,4.6,-,N/A,,Clear,290,2012-11-03 09:53:00
5:53 AM,24.1,21.9,91,30.22,8.0,NW,4.6,-,N/A,,Clear,320,2012-11-03 10:53:00
6:53 AM,24.1,21.9,91,30.25,5.0,North,3.5,-,N/A,,Clear,350,2012-11-03 11:53:00
7:53 AM,27.0,26.1,96,30.26,10.0,WNW,3.5,-,N/A,,Clear,290,2012-11-03 12:53:00
8:53 AM,26.1,23.0,88,30.29,10.0,WSW,5.8,-,N/A,,Clear,250,2012-11-03 13:53:00
9:53 AM,35.1,32.0,89,30.29,10.0,NW,3.5,-,N/A,,Partly Cloudy,320,2012-11-03 14:53:00
10:53 AM,42.1,35.1,76,30.27,10.0,Calm,Calm,-,N/A,,Partly Cloudy,0,2012-11-03 15:53:00
11:53 AM,50.0,37.9,63,30.25,10.0,Calm,Calm,-,N/A,,Clear,0,2012-11-03 16:53:00
12:53 PM,54.0,37.0,53,30.23,10.0,Calm,Calm,-,N/A,,Scattered Clouds,0,2012-11-03 17:53:00
1:53 PM,57.0,37.9,49,30.20,10.0,Calm,Calm,-,N/A,,Mostly Cloudy,0,2012-11-03 18:53:00
2:53 PM,62.1,36.0,38,30.17,10.0,SW,9.2,-,N/A,,Scattered Clouds,230,2012-11-03 19:53:00
3:53 PM,63.0,35.1,35,30.13,10.0,SSW,9.2,-,N/A,,Clear,210,2012-11-03 20:53:00
4:53 PM,63.0,33.1,33,30.14,10.0,WSW,9.2,-,N/A,,Clear,240,2012-11-03 21:53:00
5:53 PM,59.0,32.0,36,30.14,10.0,SSW,3.5,-,N/A,,Partly Cloudy,200,2012-11-03 22:53:00
6:53 PM,50.0,34.0,54,30.16,10.0,ESE,11.5,-,N/A,,Partly Cloudy,110,2012-11-03 23:53:00
7:53 PM,46.0,35.1,66,30.17,10.0,ESE,9.2,-,N/A,,Overcast,110,2012-11-04 00:53:00
8:53 PM,41.0,34.0,76,30.19,10.0,East,8.1,-,N/A,,Partly Cloudy,80,2012-11-04 01:53:00
9:53 PM,39.0,33.1,79,30.19,10.0,ESE,4.6,-,N/A,,Partly Cloudy,110,2012-11-04 02:53:00
10:53 PM,37.9,32.0,79,30.17,10.0,SE,8.1,-,N/A,,Clear,130,2012-11-04 03:53:00
11:53 PM,36.0,32.0,86,30.14,10.0,ESE,5.8,-,N/A,,Clear,110,2012-11-04 04:53:00